Time,TemperatureF,DewpointF,PressureIn,WindDirection,WindDirectionDegrees,WindSpeedMPH,WindSpeedGustMPH,Humidity,HourlyPrecipIn,Conditions,Clouds,dailyrainin,SoftwareType,DateUTC
2013-02-10 00:00:00,37.7,34.4,28.39,North,352,0.9,3.4,94,0.00,,,-99.99,HOBO +U30 +Weather +,2013-02-10 08:00:00,
2013-02-10 00:15:00,37.7,34.5,28.39,NW,305,0.9,22.4,95,0.00,,,-99.99,HOBO +U30 +Weather +,2013-02-10 08:15:00,
2013-02-10 00:30:00,37.7,34.3,28.40,NNW,333,0.9,2.9,95,0.00,,,-99.99,HOBO +U30 +Weather +,2013-02-10 08:30:00,
2013-02-10 00:45:00,37.7,34.1,28.39,North,6,1.3,2.9,95,0.00,,,-99.99,HOBO +U30 +Weather +,2013-02-10 08:45:00,
2013-02-10 01:00:00,37.7,33.3,28.39,NNE,22,0.4,2.9,95,0.00,,,-99.99,HOBO +U30 +Weather +,2013-02-10 09:00:00,
2013-02-10 01:15:00,37.7,33.6,28.39,NNE,32,0.4,2.0,96,0.00,,,-99.99,HOBO +U30 +Weather +,2013-02-10 09:15:00,
2013-02-10 01:30:00,37.7,33.7,28.39,ENE,60,0.4,2.9,95,0.00,,,-99.99,HOBO +U30 +Weather +,2013-02-10 09:30:00,
2013-02-10 01:45:00,37.6,33.8,28.39,ENE,58,0.0,21.9,95,0.00,,,-99.99,HOBO +U30 +Weather +,2013-02-10 09:45:00,
2013-02-10 02:00:00,37.6,34.0,28.40,ENE,58,0.0,24.4,95,0.00,,,-99.99,HOBO +U30 +Weather +,2013-02-10 10:00:00,
2013-02-10 02:15:00,37.6,33.4,28.40,ENE,73,0.0,25.3,96,0.00,,,-99.99,HOBO +U30 +Weather +,2013-02-10 10:15:00,
2013-02-10 02:30:00,37.6,33.6,28.40,SE,135,0.4,10.7,96,0.00,,,-99.99,HOBO +U30 +Weather +,2013-02-10 10:30:00,
2013-02-10 02:45:00,37.6,33.7,28.40,ESE,122,0.4,4.5,96,0.00,,,-99.99,HOBO +U30 +Weather +,2013-02-10 10:45:00,
2013-02-10 03:00:00,37.6,33.8,28.39,ESE,122,0.0,21.5,96,0.00,,,-99.99,HOBO +U30 +Weather +,2013-02-10 11:00:00,
2013-02-10 03:15:00,37.6,33.7,28.40,ESE,122,0.0,0.9,96,0.00,,,-99.99,HOBO +U30 +Weather +,2013-02-10 11:15:00,
2013-02-10 03:30:00,37.6,33.4,28.39,SE,136,0.9,2.5,96,0.00,,,-99.99,HOBO +U30 +Weather +,2013-02-10 11:30:00,
2013-02-10 03:45:00,37.6,33.5,28.39,ESE,108,0.4,10.7,96,0.00,,,-99.99,HOBO +U30 +Weather +,2013-02-10 11:45:00,
2013-02-10 04:00:00,37.6,33.8,28.40,ESE,107,0.0,15.9,96,0.00,,,-99.99,HOBO +U30 +Weather +,2013-02-10 12:00:00,
2013-02-10 04:15:00,37.6,32.9,28.40,ESE,108,0.0,7.8,96,0.00,,,-99.99,HOBO +U30 +Weather +,2013-02-10 12:15:00,
2013-02-10 04:30:00,37.5,32.8,28.39,ESE,108,0.0,10.7,96,0.00,,,-99.99,HOBO +U30 +Weather +,2013-02-10 12:30:00,
2013-02-10 04:45:00,37.5,32.4,28.39,ESE,108,0.0,1.3,96,0.00,,,-99.99,HOBO +U30 +Weather +,2013-02-10 12:45:00,
2013-02-10 05:00:00,37.5,32.5,28.39,ESE,108,0.0,0.4,96,0.00,,,-99.99,HOBO +U30 +Weather +,2013-02-10 13:00:00,
2013-02-10 05:15:00,37.5,32.1,28.40,ESE,107,0.0,0.9,96,0.00,,,-99.99,HOBO +U30 +Weather +,2013-02-10 13:15:00,
2013-02-10 05:30:00,37.5,31.8,28.40,ESE,107,0.0,0.0,97,0.00,,,-99.99,HOBO +U30 +Weather +,2013-02-10 13:30:00,
2013-02-10 05:45:00,37.5,31.5,28.41,ESE,107,0.0,0.0,96,0.00,,,-99.99,HOBO +U30 +Weather +,2013-02-10 13:45:00,
2013-02-10 06:00:00,37.4,31.0,28.40,ESE,107,0.0,0.0,97,0.00,,,-99.99,HOBO +U30 +Weather +,2013-02-10 14:00:00,
2013-02-10 06:15:00,37.4,31.0,28.40,ESE,107,0.0,0.0,97,0.00,,,-99.99,HOBO +U30 +Weather +,2013-02-10 14:15:00,
2013-02-10 06:30:00,37.4,31.0,28.40,ESE,107,0.0,0.0,97,0.00,,,-99.99,HOBO +U30 +Weather +,2013-02-10 14:30:00,
2013-02-10 06:45:00,37.3,31.0,28.40,ESE,107,0.0,0.0,97,0.00,,,-99.99,HOBO +U30 +Weather +,2013-02-10 14:45:00,
2013-02-10 07:00:00,37.3,31.4,28.40,ESE,107,0.0,0.0,97,0.00,,,-99.99,HOBO +U30 +Weather +,2013-02-10 15:00:00,
2013-02-10 07:15:00,37.3,31.1,28.41,ESE,107,0.0,0.0,97,0.00,,,-99.99,HOBO +U30 +Weather +,2013-02-10 15:15:00,
2013-02-10 07:30:00,37.2,30.9,28.41,ESE,107,0.0,0.0,97,0.00,,,-99.99,HOBO +U30 +Weather +,2013-02-10 15:30:00,
2013-02-10 07:45:00,37.2,31.5,28.41,ESE,107,0.0,0.0,97,0.00,,,-99.99,HOBO +U30 +Weather +,2013-02-10 15:45:00,
2013-02-10 08:00:00,37.2,32.0,28.41,ESE,107,0.0,0.0,97,0.00,,,-99.99,HOBO +U30 +Weather +,2013-02-10 16:00:00,
2013-02-10 08:15:00,37.1,32.3,28.41,ESE,108,0.0,0.0,96,0.00,,,-99.99,HOBO +U30 +Weather +,2013-02-10 16:15:00,
2013-02-10 08:30:00,37.1,33.3,28.41,ESE,108,0.0,0.0,96,0.00,,,-99.99,HOBO +U30 +Weather +,2013-02-10 16:30:00,
2013-02-10 08:45:00,37.1,33.7,28.42,ESE,110,0.0,1.6,95,0.00,,,-99.99,HOBO +U30 +Weather +,2013-02-10 16:45:00,
2013-02-10 09:00:00,37.1,33.5,28.41,South,180,0.9,2.5,93,0.00,,,-99.99,HOBO +U30 +Weather +,2013-02-10 17:00:00,
2013-02-10 09:15:00,37.1,34.1,28.41,WNW,289,0.9,2.5,92,0.00,,,-99.99,HOBO +U30 +Weather +,2013-02-10 17:15:00,
2013-02-10 09:30:00,37.1,33.7,28.41,WSW,257,0.4,15.0,93,0.00,,,-99.99,HOBO +U30 +Weather +,2013-02-10 17:30:00,
2013-02-10 09:45:00,37.2,33.9,28.42,SE,126,2.0,21.9,93,0.00,,,-99.99,HOBO +U30 +Weather +,2013-02-10 17:45:00,
2013-02-10 10:00:00,37.2,34.2,28.42,SSE,149,1.6,21.9,92,0.00,,,-99.99,HOBO +U30 +Weather +,2013-02-10 18:00:00,
2013-02-10 10:15:00,37.3,34.4,28.42,SSE,166,0.9,2.5,90,0.00,,,-99.99,HOBO +U30 +Weather +,2013-02-10 18:15:00,
2013-02-10 10:30:00,37.3,34.8,28.42,South,171,0.4,2.5,87,0.00,,,-99.99,HOBO +U30 +Weather +,2013-02-10 18:30:00,
2013-02-10 10:45:00,37.4,34.2,28.42,SE,131,0.4,2.0,86,0.00,,,-99.99,HOBO +U30 +Weather +,2013-02-10 18:45:00,
2013-02-10 11:00:00,37.5,34.4,28.42,West,281,1.3,10.1,84,0.00,,,-99.99,HOBO +U30 +Weather +,2013-02-10 19:00:00,
2013-02-10 11:15:00,37.6,33.7,28.42,WNW,296,1.6,4.3,83,0.00,,,-99.99,HOBO +U30 +Weather +,2013-02-10 19:15:00,
2013-02-10 11:30:00,37.7,33.9,28.41,WSW,257,2.5,5.4,84,0.00,,,-99.99,HOBO +U30 +Weather +,2013-02-10 19:30:00,
2013-02-10 11:45:00,37.8,33.7,28.41,NW,305,1.6,4.9,82,0.00,,,-99.99,HOBO +U30 +Weather +,2013-02-10 19:45:00,
2013-02-10 12:00:00,37.9,33.5,28.41,West,279,2.0,4.9,81,0.00,,,-99.99,HOBO +U30 +Weather +,2013-02-10 20:00:00,
2013-02-10 12:15:00,38.0,33.6,28.41,SW,230,2.5,6.7,83,0.00,,,-99.99,HOBO +U30 +Weather +,2013-02-10 20:15:00,
2013-02-10 12:30:00,38.1,33.6,28.41,SW,226,2.0,4.5,81,0.00,,,-99.99,HOBO +U30 +Weather +,2013-02-10 20:30:00,
2013-02-10 12:45:00,38.2,33.5,28.40,SW,236,2.0,5.4,81,0.00,,,-99.99,HOBO +U30 +Weather +,2013-02-10 20:45:00,
2013-02-10 13:00:00,38.3,33.5,28.40,WSW,246,2.5,5.8,81,0.00,,,-99.99,HOBO +U30 +Weather +,2013-02-10 21:00:00,
2013-02-10 13:15:00,38.4,34.0,28.40,West,281,2.0,13.6,82,0.00,,,-99.99,HOBO +U30 +Weather +,2013-02-10 21:15:00,
2013-02-10 13:30:00,38.4,34.2,28.40,WNW,303,2.0,24.8,83,0.00,,,-99.99,HOBO +U30 +Weather +,2013-02-10 21:30:00,
2013-02-10 13:45:00,38.5,34.2,28.40,NW,305,2.0,8.3,84,0.00,,,-99.99,HOBO +U30 +Weather +,2013-02-10 21:45:00,
2013-02-10 14:15:00,38.7,34.2,28.40,NNW,334,1.6,13.2,84,0.00,,,-99.99,HOBO +U30 +Weather +,2013-02-10 22:15:00,
2013-02-10 14:30:00,38.7,35.0,28.39,NW,326,1.3,17.9,84,0.00,,,-99.99,HOBO +U30 +Weather +,2013-02-10 22:30:00,
2013-02-10 14:45:00,38.8,34.8,28.39,NNW,331,0.9,12.1,83,0.00,,,-99.99,HOBO +U30 +Weather +,2013-02-10 22:45:00,
2013-02-10 15:00:00,38.8,34.8,28.39,NW,324,2.0,22.8,83,0.00,,,-99.99,HOBO +U30 +Weather +,2013-02-10 23:00:00,
2013-02-10 15:15:00,38.9,34.8,28.39,NNW,341,2.0,4.9,82,0.00,,,-99.99,HOBO +U30 +Weather +,2013-02-10 23:15:00,
2013-02-10 15:30:00,38.9,35.2,28.39,NNW,337,1.6,4.9,82,0.00,,,-99.99,HOBO +U30 +Weather +,2013-02-10 23:30:00,
2013-02-10 15:45:00,39.0,34.6,28.40,NW,321,2.0,5.8,81,0.00,,,-99.99,HOBO +U30 +Weather +,2013-02-10 23:45:00,
2013-02-10 16:00:00,39.1,34.4,28.39,NW,319,2.5,7.4,82,0.00,,,-99.99,HOBO +U30 +Weather +,2013-02-11 00:00:00,
2013-02-10 16:15:00,39.1,34.6,28.40,NW,324,2.0,27.3,82,0.00,,,-99.99,HOBO +U30 +Weather +,2013-02-11 00:15:00,
2013-02-10 16:30:00,39.2,34.4,28.39,NNW,327,2.0,4.9,83,0.00,,,-99.99,HOBO +U30 +Weather +,2013-02-11 00:30:00,
2013-02-10 16:45:00,39.3,34.2,28.40,NNW,334,2.5,7.2,84,0.00,,,-99.99,HOBO +U30 +Weather +,2013-02-11 00:45:00,
2013-02-10 17:00:00,39.3,34.0,28.40,WNW,291,2.0,11.2,85,0.00,,,-99.99,HOBO +U30 +Weather +,2013-02-11 01:00:00,
2013-02-10 17:15:00,39.4,33.9,28.40,West,261,2.0,26.2,86,0.00,,,-99.99,HOBO +U30 +Weather +,2013-02-11 01:15:00,
2013-02-10 17:30:00,39.4,33.0,28.39,North,355,2.0,27.1,87,0.00,,,-99.99,HOBO +U30 +Weather +,2013-02-11 01:30:00,
2013-02-10 17:45:00,39.4,32.6,28.39,ENE,76,1.3,2.9,89,0.00,,,-99.99,HOBO +U30 +Weather +,2013-02-11 01:45:00,
2013-02-10 18:00:00,39.4,31.4,28.39,East,90,0.4,1.6,91,0.00,,,-99.99,HOBO +U30 +Weather +,2013-02-11 02:00:00,
2013-02-10 19:00:00,39.2,32.7,28.39,East,90,0.9,25.3,92,0.00,,,-99.99,HOBO +U30 +Weather +,2013-02-11 03:00:00,
2013-02-10 19:15:00,39.2,32.7,28.40,East,90,0.4,23.7,93,0.00,,,-99.99,HOBO +U30 +Weather +,2013-02-11 03:15:00,
2013-02-10 19:30:00,39.1,32.8,28.40,East,90,0.4,2.0,93,0.00,,,-99.99,HOBO +U30 +Weather +,2013-02-11 03:30:00,
2013-02-10 19:45:00,39.1,33.3,28.40,West,281,1.3,4.9,90,0.00,,,-99.99,HOBO +U30 +Weather +,2013-02-11 03:45:00,
2013-02-10 20:00:00,39.0,32.8,28.40,WSW,247,0.4,25.7,92,0.00,,,-99.99,HOBO +U30 +Weather +,2013-02-11 04:00:00,
2013-02-10 20:15:00,39.0,32.6,28.40,WSW,247,0.0,0.0,93,0.00,,,-99.99,HOBO +U30 +Weather +,2013-02-11 04:15:00,
2013-02-10 20:30:00,38.9,32.6,28.40,WSW,247,0.0,0.0,93,0.00,,,-99.99,HOBO +U30 +Weather +,2013-02-11 04:30:00,
2013-02-10 20:45:00,38.9,32.7,28.40,West,271,0.0,0.0,93,0.00,,,-99.99,HOBO +U30 +Weather +,2013-02-11 04:45:00,
2013-02-10 21:00:00,38.9,32.9,28.40,NNE,24,0.4,2.5,93,0.00,,,-99.99,HOBO +U30 +Weather +,2013-02-11 05:00:00,
2013-02-10 21:15:00,38.8,32.8,28.40,NNE,29,0.4,26.2,93,0.00,,,-99.99,HOBO +U30 +Weather +,2013-02-11 05:15:00,
2013-02-10 21:30:00,38.8,32.8,28.40,NNE,32,0.0,0.0,93,0.00,,,-99.99,HOBO +U30 +Weather +,2013-02-11 05:30:00,
2013-02-10 21:45:00,38.8,32.7,28.39,NNE,32,0.0,0.0,93,0.00,,,-99.99,HOBO +U30 +Weather +,2013-02-11 05:45:00,
2013-02-10 22:00:00,38.7,32.5,28.39,NNE,32,0.0,0.0,93,0.00,,,-99.99,HOBO +U30 +Weather +,2013-02-11 06:00:00,
2013-02-10 22:15:00,38.7,32.4,28.38,NNE,32,0.0,0.0,94,0.00,,,-99.99,HOBO +U30 +Weather +,2013-02-11 06:15:00,
2013-02-10 22:30:00,38.7,32.6,28.38,NNE,32,0.0,0.0,94,0.00,,,-99.99,HOBO +U30 +Weather +,2013-02-11 06:30:00,
2013-02-10 22:45:00,38.6,32.8,28.38,NNE,32,0.0,0.0,94,0.00,,,-99.99,HOBO +U30 +Weather +,2013-02-11 06:45:00,
2013-02-10 23:00:00,38.6,32.7,28.38,NNE,32,0.0,0.0,94,0.00,,,-99.99,HOBO +U30 +Weather +,2013-02-11 07:00:00,
2013-02-10 23:15:00,38.6,32.7,28.38,NNE,32,0.0,0.0,94,0.00,,,-99.99,HOBO +U30 +Weather +,2013-02-11 07:15:00,
2013-02-10 23:30:00,38.5,32.8,28.38,NNE,32,0.0,0.0,94,0.00,,,-99.99,HOBO +U30 +Weather +,2013-02-11 07:30:00,
2013-02-10 23:45:00,38.5,32.8,28.38,NNE,32,0.0,0.0,94,0.00,,,-99.99,HOBO +U30 +Weather +,2013-02-11 07:45:00,